Flag for Jamaica Weather past 2 weeks in May Pen, Jamaica

Now
84 °F

Passing clouds.


Feels Like: 94 °F
Forecast: 73 / 89 °F
Wind: 8 mph from North

Location: Kingston / Norman Manley

Current Time: Sep 19, 2014 at 9:57:46 PM

Latest Report: Sep 19, 2014 at 9:00 PM


Visibility: N/A

Pressure: 29.92 "Hg

Humidity: 79%

Dew point: 77 °F

Location of May PenLocation

Historic Weather in May Pen — Graph

°F

May Pen temperature yesterday

Maximum temperature yesterday: 90 °F (at 1:00 PM)
Minimum temperature yesterday: 81 °F (at 1:00 AM)
Average temperature yesterday: 84 °F

Past Weeks' High & Low Weather Summary

 TemperatureHumidityPressure
High91 °F (Sep 5, 1:00 PM)94% (Sep 9, 3:00 PM)30.01 "Hg (Sep 9, 3:00 PM)
Low77 °F (Sep 9, 3:00 PM)52% (Sep 14, 3:00 PM)29.83 "Hg (Sep 6, 5:00 PM)
Average84 °F73%29.92 "Hg
* Reported Sep 4 8:00 PM — Sep 19 8:00 PM, May Pen, Weather by CustomWeather, © 2014

Note: Actual official high and low records may vary slightly from our data, if they occured in-between our weather recording intervals... More about our weather records

Advertising

May Pen weather history for previous 24 hours

 ConditionsComfort  
Time TempWeatherWind HumidityBarometerVisibility
8:00 PM
Sep 19
84 °FPassing clouds.8 mph79%29.89 "HgN/A
7:00 PM84 °FPassing clouds.6 mph79%29.86 "HgN/A
6:00 PM86 °FScattered clouds.18 mph75%29.86 "HgN/A
5:00 PM86 °FScattered clouds.17 mph75%29.86 "HgN/A
4:00 PM86 °FPassing clouds.20 mph75%29.86 "HgN/A
3:00 PM90 °FPassing clouds.18 mph67%29.86 "HgN/A
2:00 PM88 °FThundershowers. Passing clouds.18 mph70%29.86 "HgN/A
1:00 PM90 °FPassing clouds.16 mph67%29.89 "HgN/A
12:00 PM88 °FPassing clouds.9 mph70%29.92 "HgN/A
11:00 AM88 °FPassing clouds.8 mph62%29.95 "HgN/A
10:00 AM86 °FPassing clouds.6 mph70%29.95 "HgN/A
9:00 AM84 °FPassing clouds.5 mph74%29.95 "HgN/A
8:00 AM84 °FPassing clouds.6 mph70%29.95 "HgN/A
7:00 AM82 °FPassing clouds.6 mph79%29.92 "HgN/A
6:00 AM82 °FPassing clouds.6 mph74%29.92 "HgN/A
5:00 AM81 °FPassing clouds.6 mph79%29.89 "HgN/A
4:00 AM81 °FPassing clouds.7 mph84%29.89 "HgN/A
3:00 AM82 °FPassing clouds.2 mph79%29.89 "HgN/A
2:00 AM82 °FPassing clouds.2 mph79%29.89 "HgN/A
1:00 AM81 °FPassing clouds.2 mph84%29.92 "HgN/A
12:00 AM82 °FPassing clouds.2 mph79%29.92 "HgN/A
11:00 PM
Sep 18
82 °FPassing clouds.5 mph79%29.95 "HgN/A
10:00 PM82 °FPassing clouds.8 mph79%29.92 "HgN/A
9:00 PM82 °FPassing clouds.8 mph84%29.92 "HgN/A
Weather by CustomWeather, © 2014

See weather overviewHow to use our weather pages